Vorticity
12 11 11 10 10 10 10 9 9 9 9 8 7 6 5 5 5 5 5 5 6 6 6 6 5 5 4 4 4 3 3 3 3 3 3 3 3 3 3 3 4 4 4 4 4 4 4 4 4 3 3 3 3 3 3 3 3 3 4 4 4 4 4 4 5 5 5 5 5
11 11 11 10 10 10 10 9 9 9 9 8 7 6 5 5 4 5 5 5 6 6 6 6 5 5 5 5 4 4 3 3 3 3 3 3 3 3 3 3 3 4 4 4 4 4 4 4 3 3 3 3 3 3 3 3 3 3 4 4 4 4 4 5 5 5 5 5 4
11 11 10 10 10 10 10 9 9 9 9 8 8 7 6 5 5 5 5 5 5 6 6 6 6 5 5 5 5 4 4 3 3 3 3 3 3 3 3 3 3 3 3 4 4 4 4 3 3 3 3 3 3 3 3 3 3 3 4 4 3 4 4 5 4 4 4 5 5
11 11 10 10 9 9 9 9 9 9 9 8 8 7 6 5 5 5 5 5 5 5 6 6 6 6 6 5 5 5 4 4 4 3 3 3 3 3 3 3 3 3 3 3 3 3 3 3 3 3 3 3 3 3 3 3 3 3 4 3 3 4 4 4 4 4 5 5 5
11 11 10 9 9 9 9 9 9 9 9 9 8 7 7 6 5 5 5 5 5 5 5 6 6 6 6 6 6 5 5 5 4 4 4 3 3 3 3 3 3 3 3 3 3 3 3 3 3 3 3 3 3 3 3 3 3 3 3 3 4 4 4 4 4 5 5 6 6
11 10 10 9 9 9 9 9 9 9 9 9 8 8 7 6 6 5 5 5 5 5 5 6 6 6 6 6 6 6 6 5 5 5 4 4 4 3 3 3 3 3 3 3 3 3 3 2 3 3 3 3 3 3 3 3 3 3 3 3 3 4 4 5 5 5 6 6 6
11 10 10 9 9 9 9 9 9 9 9 9 9 8 8 7 6 6 5 5 5 5 6 6 6 6 7 7 7 7 6 6 6 5 5 5 4 4 4 3 3 3 3 3 3 3 2 2 2 2 3 3 3 3 2 2 3 3 3 3 4 4 5 5 6 6 7 7 7
12 11 10 9 9 9 9 9 9 9 10 10 9 9 8 8 7 6 6 6 6 6 6 6 6 7 7 7 7 7 7 7 7 6 6 6 5 5 5 4 4 3 3 3 3 3 2 2 2 2 2 3 3 3 2 3 3 3 4 4 4 5 6 6 6 7 8 7 7
12 12 11 10 9 9 9 9 9 10 10 10 10 9 9 8 8 7 7 7 6 6 6 6 6 7 7 7 7 7 7 7 7 7 7 7 6 6 6 5 5 4 4 3 3 3 3 3 3 3 3 3 3 3 3 3 4 4 5 5 5 6 6 7 7 8 8 8 8
12 12 11 10 10 10 10 10 10 10 11 11 10 10 10 9 9 8 8 7 7 7 7 7 7 7 7 7 7 7 8 8 8 8 8 8 7 7 7 6 6 5 5 5 4 4 4 3 4 4 4 4 4 4 4 4 5 5 6 6 6 6 7 8 8 8 8 8 8
12 12 11 11 11 11 11 11 11 11 11 11 11 11 11 10 10 9 9 8 8 7 7 7 7 7 7 7 7 8 8 8 8 8 8 8 8 8 8 7 7 6 6 6 5 5 5 5 5 5 5 5 5 5 5 5 6 6 7 7 7 7 7 8 9 9 9 8 8
11 11 11 11 11 11 11 11 12 12 12 12 12 12 11 11 10 10 9 9 8 8 8 8 7 7 7 8 8 8 8 8 8 8 8 8 8 8 8 8 8 7 7 7 7 6 6 6 6 6 6 6 6 6 6 7 7 8 8 8 8 8 8 8 9 9 9 8 8
11 11 11 11 11 11 11 11 12 12 12 12 12 12 12 11 11 10 10 9 9 9 8 8 8 8 8 8 8 8 8 8 8 8 8 8 8 8 8 8 8 8 8 8 8 7 7 7 7 7 7 7 7 8 8 8 8 8 9 8 9 9 9 9 9 9 9 9 9
11 10 10 10 10 10 11 11 11 12 12 12 12 12 12 11 11 11 10 10 9 9 9 8 8 8 8 8 8 8 8 8 8 8 8 8 8 9 8 8 8 8 8 8 8 8 8 8 8 8 8 8 8 9 9 9 9 9 9 9 9 9 9 9 9 9 9 10 10
10 10 10 10 10 10 10 10 10 11 11 11 11 11 11 11 11 10 10 10 9 9 9 9 8 8 8 8 8 8 8 8 8 8 8 8 8 8 8 8 8 8 8 8 8 9 9 9 9 9 9 9 9 9 9 10 10 10 10 10 10 10 10 10 10 10 11 10 10
11 10 10 10 10 9 9 9 10 10 10 10 10 10 10 10 10 9 9 9 9 9 9 9 8 8 8 8 8 8 8 8 8 8 8 8 8 8 8 8 8 8 8 8 9 9 9 9 9 9 10 10 10 10 10 10 10 11 11 11 11 11 11 11 11 12 12 11 11
11 11 10 10 10 10 9 9 9 9 9 9 9 9 9 9 9 9 9 9 9 8 8 8 8 8 8 8 8 8 8 8 8 8 8 8 8 8 8 8 8 8 8 9 9 9 9 10 10 10 10 10 10 10 10 11 11 11 12 12 13 13 13 13 13 13 13 12 12
11 11 11 11 11 10 10 10 10 10 9 9 9 9 9 9 9 9 9 9 8 8 8 8 8 8 8 8 8 8 8 8 8 8 8 8 8 8 9 9 9 9 9 9 9 9 9 10 10 10 10 11 11 11 11 11 12 12 13 13 13 13 13 13 13 13 12 12 12
11 11 12 11 11 11 11 11 11 11 11 11 10 10 10 10 10 10 9 9 9 9 9 9 9 9 9 9 9 9 9 9 9 8 8 9 9 9 9 9 9 10 10 10 10 10 10 10 10 10 11 11 11 12 12 12 12 13 13 13 12 12 12 12 12 11 11 11 11
10 11 11 11 11 12 12 12 12 12 12 12 12 12 12 12 11 11 11 11 11 10 10 10 10 10 10 10 10 10 10 10 10 10 10 10 10 10 10 10 10 10 10 10 10 10 10 10 11 11 11 12 12 12 12 13 13 12 12 12 12 11 11 11 11 10 10 10 10
9 9 9 10 10 10 11 11 11 12 12 12 12 12 12 12 12 12 12 12 12 12 12 12 12 12 12 12 11 11 11 11 11 11 11 11 11 11 11 11 11 11 11 11 11 11 11 11 12 12 12 13 13 13 13 13 13 12 12 12 12 11 11 11 11 10 10 10 10
8 8 8 8 8 9 9 9 9 10 10 11 11 11 11 11 11 11 11 11 11 12 12 12 12 12 12 12 12 12 12 12 12 12 12 12 12 12 12 12 12 12 12 12 12 12 12 12 12 13 13 13 13 13 13 13 12 12 12 12 11 11 11 11 10 10 9 9 8
7 7 7 7 7 7 7 7 8 8 8 9 9 9 9 10 10 10 10 10 10 11 11 11 11 11 11 11 11 11 11 11 11 11 11 11 11 11 11 11 11 11 11 11 11 11 11 11 12 12 12 11 11 11 11 11 11 11 10 10 10 10 9 9 8 7 7 7 7
6 7 7 7 7 7 7 7 7 7 7 7 8 8 8 9 9 9 10 10 10 10 11 11 11 11 11 11 11 11 11 11 10 10 10 10 10 9 9 9 10 10 10 10 10 10 10 10 10 10 10 10 9 9 9 9 9 9 8 8 7 7 5 4 4 4 4 4 3
7 7 7 7 7 7 7 6 6 6 6 6 6 6 6 7 7 8 8 9 9 10 10 10 10 11 11 11 10 10 10 10 10 9 9 9 8 8 8 8 9 9 9 9 9 9 9 9 9 8 8 8 8 8 8 8 7 7 7 6 5 3 1 2 2 2 1 -1 -1
7 7 7 7 7 7 7 7 6 6 6 5 5 5 4 4 4 4 4 4 5 5 5 6 6 7 7 7 7 8 8 8 8 7 7 7 7 7 7 7 8 8 8 8 8 9 9 8 8 7 7 6 7 7 7 6 6 5 4 4 2 2 2 3 1 -0 -0 0 2
7 7 7 7 7 7 7 7 7 7 7 6 6 5 4 4 3 2 1 1 0 -1 -1 -1 -1 -0 0 1 2 2 3 3 3 4 4 4 4 5 6 6 7 7 8 8 8 8 8 9 9 9 9 8 7 5 4 3 2 2 1 -0 -1 -1 -0 -1 -1 0 1 4 5
6 6 7 7 7 8 8 8 8 8 8 8 8 8 7 7 6 5 4 3 2 1 0 -0 -1 -2 -2 -1 -1 -0 0 1 1 2 2 3 4 4 5 6 6 7 7 7 7 7 6 6 5 4 4 3 3 2 2 1 1 1 0 0 0 2 3 4 4 4 5 6 7
5 5 6 6 6 7 7 8 8 8 8 9 9 9 9 10 10 10 10 10 10 9 9 8 7 6 6 6 5 5 4 5 5 5 5 6 6 7 7 7 6 6 5 5 4 3 2 1 1 1 1 1 1 2 2 2 2 3 3 3 4 5 5 6 6 7 7 6 6
5 6 6 5 5 6 6 6 7 7 7 8 8 9 9 9 10 11 11 12 13 14 14 14 14 14 14 13 12 11 11 11 10 10 9 9 9 8 8 7 6 5 4 4 3 3 2 2 3 3 4 4 5 5 5 6 6 6 5 5 6 6 7 7 7 8 8 8 9
8 8 8 7 7 6 6 5 5 6 6 6 7 7 7 8 8 8 9 9 9 10 11 12 12 13 13 12 12 12 12 11 11 11 11 11 10 10 9 9 8 8 8 9 9 9 9 9 9 8 8 8 8 8 8 8 8 8 7 7 8 8 8 9 10 12 14 16 18
13 13 13 12 11 10 8 7 7 6 6 6 6 6 6 6 6 6 6 6 6 7 7 7 8 8 8 8 9 9 10 10 10 11 11 11 11 10 10 10 9 9 10 10 11 11 11 11 10 10 9 9 9 9 9 10 10 10 10 10 11 12 13 15 17 20 23 26 29
17 17 17 17 16 16 15 14 13 12 11 10 9 9 8 8 8 8 8 8 8 8 8 8 8 8 9 9 9 10 10 10 11 11 11 12 12 12 12 13 13 13 14 15 15 15 15 15 15 14 14 14 14 15 15 15 15 16 17 18 20 22 25 28 30 32 32 32 30
17 17 17 17 17 17 18 18 18 18 17 17 16 16 15 14 14 14 13 13 13 12 12 12 12 13 13 13 13 12 12 12 12 12 13 13 14 15 15 16 18 19 20 22 23 23 23 24 24 25 25 26 27 27 27 27 27 28 29 30 32 34 35 36 34 31 27 22 17
14 14 13 13 14 14 14 15 16 16 16 17 17 17 17 17 17 16 16 16 16 15 15 14 14 13 13 13 13 13 13 13 13 13 13 13 13 13 13 14 15 16 18 19 21 22 23 24 25 27 29 31 31 31 31 31 31 31 31 31 30 28 25 22 18 15 11 8 6
11 10 10 10 10 10 10 10 10 10 11 11 11 12 12 12 12 12 12 12 12 12 12 12 12 11 11 11 11 11 11 12 12 12 13 13 12 12 12 12 12 12 13 14 14 15 16 16 17 18 19 19 19 19 19 19 19 19 17 15 13 10 8 6 5 4 4 3 3
7 7 7 7 7 7 6 7 6 6 6 6 7 7 7 7 8 8 8 8 9 9 9 9 9 9 9 9 9 9 9 10 10 10 10 11 11 11 11 11 10 10 10 10 10 10 10 10 10 10 10 10 9 9 9 9 9 8 7 6 5 4 4 4 4 4 4 4 4
4 4 4 4 4 4 4 4 4 4 4 4 4 4 4 5 5 6 6 7 7 8 8 8 9 9 9 9 9 9 9 9 9 9 9 9 9 10 10 10 9 9 9 8 8 8 8 8 8 8 8 8 8 8 8 7 6 6 5 5 5 5 5 5 5 5 5 5 5
2 2 2 3 3 3 3 3 2 2 3 3 3 3 3 4 5 5 6 7 7 7 7 8 8 9 9 9 9 9 9 9 9 9 9 8 9 9 9 9 9 8 8 8 7 7 7 7 7 7 8 8 8 8 8 7 7 6 6 6 6 6 6 6 6 6 6 7 7
1 1 1 2 2 2 2 2 3 3 3 3 3 4 4 4 5 5 5 7 8 8 8 8 8 8 9 9 9 9 9 9 9 9 9 9 8 8 8 8 8 8 7 7 7 7 8 8 7 8 8 8 8 8 8 8 7 7 7 7 7 7 6 6 6 7 9 10 10
1 1 1 1 2 2 3 3 3 4 4 4 5 5 5 5 5 6 7 8 8 9 9 9 9 9 9 9 9 9 9 9 9 9 9 9 8 8 8 8 7 7 7 7 8 8 8 8 8 8 8 8 8 8 8 8 8 8 8 8 8 8 8 7 7 8 10 11 11
Height
5746 5747 5748 5750 5751 5753 5754 5755 5756 5758 5759 5760 5761 5762 5763 5764 5764 5765 5766 5766 5766 5767 5767 5768 5768 5768 5768 5769 5769 5770 5771 5771 5772 5772 5773 5773 5773 5773 5773 5773 5773 5773 5773 5773 5773 5773 5773 5773 5773 5773 5772 5771 5771 5770 5769 5769 5768 5768 5767 5766 5766 5765 5764 5763 5763 5762 5761 5760 5759
5744 5746 5747 5748 5749 5751 5752 5753 5754 5755 5757 5758 5759 5760 5761 5761 5762 5763 5763 5764 5764 5764 5765 5765 5765 5766 5766 5767 5768 5768 5768 5769 5770 5770 5770 5771 5771 5771 5771 5771 5771 5771 5771 5771 5771 5771 5771 5771 5770 5770 5770 5769 5768 5768 5767 5766 5766 5765 5764 5764 5763 5763 5762 5761 5760 5759 5758 5757 5756
5743 5744 5745 5747 5748 5749 5750 5751 5752 5753 5754 5755 5756 5757 5758 5759 5760 5761 5761 5762 5762 5762 5763 5763 5763 5764 5764 5765 5765 5766 5766 5767 5768 5768 5768 5768 5769 5769 5769 5769 5769 5769 5769 5769 5768 5768 5768 5768 5768 5768 5767 5767 5766 5765 5765 5764 5763 5763 5762 5762 5761 5760 5759 5758 5758 5757 5756 5755 5754
5741 5743 5744 5745 5746 5747 5748 5749 5750 5751 5752 5753 5754 5755 5756 5757 5758 5758 5759 5759 5760 5760 5761 5761 5762 5762 5763 5763 5763 5764 5764 5765 5765 5766 5766 5766 5767 5767 5767 5767 5767 5767 5767 5767 5766 5766 5766 5766 5765 5765 5765 5764 5764 5763 5762 5762 5761 5760 5760 5759 5758 5758 5757 5756 5755 5754 5753 5752 5751
5740 5741 5742 5743 5744 5745 5746 5747 5748 5749 5750 5751 5752 5753 5754 5755 5755 5756 5757 5757 5758 5758 5759 5759 5760 5760 5761 5761 5761 5762 5762 5763 5763 5763 5764 5764 5764 5764 5765 5765 5765 5765 5764 5764 5764 5763 5763 5763 5763 5763 5762 5762 5761 5761 5760 5759 5758 5758 5757 5757 5756 5755 5754 5753 5752 5751 5750 5749 5748
5738 5739 5741 5742 5743 5743 5744 5745 5746 5747 5748 5749 5750 5751 5752 5753 5753 5754 5755 5755 5756 5756 5757 5757 5758 5758 5758 5759 5759 5759 5760 5760 5760 5761 5761 5762 5762 5762 5763 5763 5763 5762 5762 5762 5762 5761 5761 5761 5760 5760 5760 5759 5759 5758 5757 5757 5756 5755 5755 5754 5753 5753 5752 5750 5749 5748 5748 5746 5745
5737 5738 5739 5740 5741 5742 5743 5743 5744 5745 5747 5748 5748 5749 5750 5751 5752 5752 5753 5753 5754 5754 5755 5755 5756 5756 5757 5757 5757 5757 5758 5758 5758 5758 5759 5759 5760 5760 5760 5760 5760 5760 5760 5759 5759 5759 5758 5758 5758 5758 5757 5757 5756 5755 5755 5754 5753 5753 5752 5752 5751 5750 5749 5748 5747 5746 5745 5743 5743
5736 5737 5738 5738 5739 5740 5741 5742 5743 5744 5745 5746 5747 5748 5748 5749 5750 5750 5751 5752 5752 5753 5753 5753 5754 5754 5754 5754 5755 5755 5755 5755 5756 5756 5757 5757 5757 5758 5758 5758 5758 5758 5757 5757 5757 5757 5756 5756 5756 5755 5755 5754 5753 5753 5752 5752 5751 5750 5750 5749 5748 5747 5746 5745 5744 5743 5742 5741 5740
5735 5736 5737 5737 5738 5739 5740 5741 5742 5743 5743 5744 5745 5746 5747 5747 5748 5749 5749 5750 5750 5751 5751 5752 5752 5752 5752 5752 5753 5753 5753 5753 5753 5754 5754 5754 5754 5755 5755 5755 5755 5755 5755 5754 5754 5754 5754 5753 5753 5753 5752 5752 5751 5750 5749 5749 5748 5748 5747 5746 5745 5744 5743 5742 5741 5740 5739 5738 5737
5734 5734 5735 5736 5737 5738 5738 5739 5740 5741 5742 5743 5743 5744 5745 5746 5746 5747 5748 5748 5748 5749 5749 5749 5749 5750 5750 5750 5750 5750 5750 5751 5751 5751 5751 5752 5752 5752 5752 5753 5753 5752 5752 5752 5752 5751 5751 5751 5750 5750 5749 5749 5748 5747 5747 5746 5746 5745 5744 5743 5742 5741 5740 5739 5738 5737 5736 5735 5734
5733 5733 5734 5735 5735 5736 5737 5738 5739 5740 5741 5741 5742 5743 5743 5744 5745 5745 5745 5746 5746 5747 5747 5747 5747 5748 5748 5748 5748 5748 5748 5748 5748 5749 5749 5749 5749 5749 5750 5750 5750 5749 5749 5749 5749 5749 5748 5748 5748 5747 5747 5746 5745 5744 5744 5743 5743 5742 5741 5740 5739 5738 5737 5736 5735 5734 5733 5732 5731
5731 5732 5733 5733 5734 5735 5736 5737 5738 5738 5739 5740 5741 5741 5742 5742 5743 5743 5743 5744 5744 5744 5744 5745 5745 5745 5745 5745 5745 5745 5746 5746 5746 5746 5746 5747 5747 5747 5747 5747 5747 5747 5746 5746 5746 5746 5745 5745 5745 5744 5744 5743 5743 5742 5741 5740 5740 5739 5738 5737 5736 5735 5734 5733 5733 5732 5730 5729 5728
5730 5731 5731 5732 5733 5733 5734 5735 5736 5737 5738 5738 5739 5739 5740 5740 5740 5741 5741 5742 5742 5742 5742 5742 5743 5743 5743 5743 5743 5743 5743 5743 5743 5744 5744 5744 5744 5744 5744 5744 5744 5743 5743 5743 5743 5743 5743 5742 5742 5741 5741 5740 5739 5739 5738 5737 5737 5736 5735 5734 5733 5733 5732 5731 5730 5729 5728 5727 5726
5728 5729 5730 5730 5731 5732 5733 5734 5734 5735 5736 5737 5737 5737 5738 5738 5738 5738 5739 5739 5739 5740 5740 5740 5740 5740 5740 5741 5741 5741 5741 5741 5741 5741 5741 5741 5741 5741 5741 5741 5741 5741 5740 5740 5740 5740 5739 5739 5738 5738 5738 5737 5737 5736 5735 5734 5733 5733 5732 5731 5731 5730 5729 5728 5727 5726 5725 5724 5723
5727 5727 5728 5728 5729 5730 5731 5732 5733 5733 5733 5734 5734 5735 5735 5735 5736 5736 5737 5737 5737 5738 5738 5738 5738 5738 5738 5738 5738 5738 5738 5738 5738 5738 5738 5738 5738 5738 5738 5738 5738 5738 5737 5737 5737 5736 5736 5736 5735 5735 5735 5734 5733 5733 5732 5732 5731 5730 5729 5728 5728 5727 5726 5726 5725 5724 5723 5722 5721
5725 5725 5726 5727 5727 5728 5729 5729 5730 5731 5731 5732 5732 5732 5733 5733 5733 5734 5734 5734 5735 5735 5735 5736 5736 5736 5736 5736 5736 5736 5736 5736 5736 5736 5736 5736 5736 5736 5735 5735 5735 5735 5734 5734 5734 5733 5733 5733 5732 5732 5732 5731 5731 5730 5729 5729 5728 5728 5727 5726 5725 5725 5724 5723 5722 5721 5720 5719 5719
5723 5723 5724 5725 5726 5726 5727 5727 5728 5728 5729 5729 5729 5730 5730 5731 5731 5732 5732 5732 5733 5733 5733 5733 5733 5733 5733 5733 5733 5733 5733 5733 5733 5733 5733 5733 5733 5733 5733 5733 5732 5732 5732 5731 5731 5731 5730 5730 5730 5729 5729 5728 5728 5727 5727 5726 5726 5725 5724 5724 5723 5722 5722 5721 5720 5719 5718 5717 5716
5721 5722 5723 5723 5724 5724 5725 5725 5726 5726 5727 5727 5728 5728 5728 5728 5729 5729 5730 5730 5730 5731 5731 5731 5731 5731 5731 5731 5731 5731 5731 5731 5731 5731 5731 5731 5730 5730 5730 5730 5730 5729 5729 5729 5728 5728 5728 5728 5727 5727 5726 5726 5725 5725 5724 5724 5723 5723 5722 5721 5721 5720 5719 5718 5717 5716 5715 5714 5713
5720 5720 5721 5722 5722 5723 5723 5724 5724 5724 5725 5725 5726 5726 5726 5727 5727 5727 5728 5728 5728 5728 5728 5729 5729 5729 5729 5729 5729 5728 5728 5728 5728 5728 5728 5728 5728 5728 5728 5727 5727 5727 5727 5726 5726 5726 5725 5725 5725 5724 5724 5723 5723 5723 5722 5721 5721 5720 5719 5718 5718 5717 5716 5715 5714 5713 5713 5712 5711
5718 5719 5719 5720 5721 5721 5722 5722 5723 5723 5723 5723 5724 5724 5724 5725 5725 5725 5726 5726 5726 5726 5726 5727 5727 5727 5727 5727 5726 5726 5726 5726 5726 5726 5726 5726 5725 5725 5725 5725 5724 5724 5724 5723 5723 5723 5723 5723 5722 5722 5722 5721 5721 5720 5719 5719 5718 5717 5717 5716 5715 5714 5713 5713 5712 5711 5710 5709 5708
5717 5718 5718 5718 5719 5719 5720 5720 5721 5721 5721 5722 5722 5722 5723 5723 5723 5723 5723 5724 5724 5724 5724 5724 5724 5724 5724 5724 5724 5724 5724 5723 5723 5723 5723 5723 5723 5723 5723 5722 5722 5722 5721 5721 5720 5720 5720 5720 5720 5720 5719 5719 5718 5718 5717 5717 5716 5715 5714 5713 5712 5711 5711 5710 5709 5708 5707 5706 5705
5715 5716 5716 5717 5717 5718 5718 5718 5719 5719 5720 5720 5720 5721 5721 5721 5721 5721 5721 5722 5722 5722 5722 5722 5722 5722 5722 5722 5722 5722 5721 5721 5721 5721 5721 5721 5720 5720 5720 5720 5719 5719 5718 5718 5718 5718 5717 5717 5717 5717 5716 5716 5716 5715 5714 5714 5713 5712 5711 5710 5709 5709 5708 5707 5706 5705 5704 5703 5702
5714 5714 5715 5715 5716 5716 5717 5717 5717 5718 5718 5718 5718 5719 5719 5719 5719 5719 5719 5719 5720 5720 5720 5720 5720 5720 5720 5719 5719 5719 5719 5719 5718 5718 5718 5718 5718 5718 5717 5717 5717 5717 5716 5716 5715 5715 5715 5714 5714 5713 5713 5713 5712 5712 5711 5711 5710 5709 5708 5708 5707 5706 5705 5704 5703 5702 5701 5700 5699
5713 5713 5713 5714 5714 5714 5715 5715 5716 5716 5716 5717 5717 5717 5717 5717 5717 5717 5718 5718 5718 5718 5718 5718 5718 5718 5717 5717 5717 5717 5716 5716 5716 5716 5716 5715 5715 5715 5715 5715 5714 5714 5714 5713 5713 5713 5712 5712 5711 5710 5710 5709 5709 5708 5708 5707 5707 5706 5705 5704 5703 5703 5702 5701 5700 5700 5699 5698 5698
5711 5712 5712 5712 5713 5713 5713 5714 5714 5714 5715 5715 5715 5715 5715 5715 5715 5716 5716 5716 5716 5716 5716 5716 5715 5715 5715 5715 5714 5714 5714 5714 5713 5713 5713 5713 5713 5713 5713 5713 5712 5712 5712 5711 5711 5710 5709 5709 5708 5708 5707 5706 5706 5705 5704 5703 5703 5702 5702 5701 5700 5700 5699 5698 5698 5697 5696 5695 5694
5709 5710 5710 5710 5711 5711 5711 5712 5712 5713 5713 5713 5713 5713 5713 5713 5713 5713 5714 5714 5714 5714 5714 5713 5713 5713 5713 5713 5712 5712 5712 5711 5711 5711 5711 5711 5710 5710 5710 5710 5710 5709 5709 5708 5708 5708 5707 5706 5706 5705 5704 5703 5703 5702 5702 5701 5700 5699 5699 5698 5698 5697 5696 5695 5694 5693 5692 5691 5690
5708 5708 5708 5708 5709 5709 5709 5710 5710 5710 5710 5711 5711 5711 5711 5711 5711 5712 5712 5712 5712 5712 5712 5711 5711 5711 5711 5710 5710 5710 5709 5709 5708 5708 5708 5708 5708 5708 5708 5708 5708 5707 5707 5706 5705 5705 5704 5703 5703 5702 5701 5701 5700 5699 5698 5698 5697 5696 5696 5695 5694 5693 5692 5691 5690 5689 5688 5687 5686
5706 5706 5707 5707 5707 5708 5708 5708 5708 5708 5708 5708 5709 5709 5709 5709 5709 5709 5709 5709 5709 5709 5709 5709 5709 5708 5708 5708 5708 5708 5707 5707 5706 5706 5706 5706 5706 5706 5706 5705 5705 5704 5704 5703 5703 5702 5701 5700 5699 5698 5698 5697 5696 5696 5695 5694 5693 5692 5691 5691 5690 5689 5688 5687 5686 5685 5684 5683 5683
5704 5705 5705 5705 5705 5706 5706 5706 5706 5706 5706 5706 5706 5707 5707 5707 5707 5707 5707 5707 5707 5707 5707 5706 5706 5706 5706 5706 5705 5705 5704 5704 5704 5704 5704 5703 5703 5703 5703 5703 5702 5701 5700 5700 5699 5698 5698 5697 5696 5695 5694 5693 5693 5692 5691 5690 5689 5688 5688 5687 5686 5686 5685 5684 5683 5682 5681 5680 5680
5703 5703 5703 5703 5703 5703 5704 5704 5704 5704 5704 5704 5704 5704 5704 5704 5704 5704 5704 5704 5704 5704 5704 5704 5703 5703 5703 5703 5703 5702 5702 5702 5702 5701 5701 5701 5701 5700 5700 5699 5698 5698 5697 5696 5695 5694 5693 5693 5692 5691 5691 5690 5689 5688 5688 5687 5686 5685 5684 5684 5683 5682 5682 5681 5680 5679 5678 5678 5677
5700 5701 5701 5701 5701 5701 5702 5702 5702 5702 5702 5702 5702 5702 5702 5702 5702 5702 5702 5702 5702 5702 5701 5701 5701 5701 5700 5700 5700 5700 5699 5699 5699 5699 5698 5698 5698 5697 5697 5696 5695 5694 5693 5693 5692 5691 5690 5689 5689 5688 5688 5687 5686 5685 5685 5684 5683 5683 5682 5681 5680 5680 5679 5678 5678 5677 5676 5675 5674
5698 5698 5698 5698 5698 5699 5699 5699 5699 5699 5699 5700 5700 5700 5700 5700 5700 5700 5699 5699 5699 5699 5699 5699 5698 5698 5698 5698 5698 5697 5697 5697 5696 5696 5696 5695 5694 5694 5693 5692 5691 5691 5690 5689 5688 5688 5687 5687 5686 5685 5685 5684 5683 5683 5682 5681 5681 5680 5679 5678 5678 5677 5677 5676 5675 5675 5674 5673 5672
5696 5696 5696 5696 5696 5696 5697 5697 5697 5697 5697 5697 5697 5697 5697 5697 5697 5697 5697 5697 5697 5697 5696 5696 5696 5696 5695 5695 5695 5695 5695 5694 5694 5693 5693 5692 5691 5691 5690 5689 5688 5688 5687 5687 5686 5686 5685 5684 5684 5683 5683 5682 5681 5680 5680 5679 5678 5678 5677 5676 5676 5675 5674 5674 5673 5673 5672 5671 5670
5693 5693 5693 5693 5693 5693 5694 5694 5694 5694 5694 5694 5694 5694 5695 5695 5695 5694 5694 5694 5694 5694 5694 5693 5693 5693 5693 5693 5692 5692 5692 5691 5691 5691 5690 5690 5689 5688 5688 5687 5686 5686 5685 5685 5684 5683 5683 5682 5682 5681 5680 5680 5679 5678 5678 5677 5676 5676 5675 5674 5674 5673 5673 5672 5671 5671 5670 5669 5668
5691 5691 5691 5691 5691 5691 5691 5691 5691 5692 5692 5692 5692 5692 5692 5692 5692 5692 5692 5692 5692 5691 5691 5691 5690 5690 5690 5689 5689 5689 5689 5688 5688 5688 5688 5687 5687 5686 5686 5685 5684 5683 5683 5682 5681 5680 5680 5679 5679 5678 5678 5677 5677 5676 5675 5674 5674 5673 5673 5672 5671 5670 5670 5669 5669 5668 5667 5666 5665
5688 5688 5688 5688 5689 5689 5689 5689 5689 5689 5689 5689 5689 5689 5689 5689 5689 5689 5689 5689 5689 5688 5688 5688 5688 5688 5687 5687 5687 5686 5686 5686 5685 5685 5684 5684 5684 5683 5683 5682 5681 5680 5680 5679 5678 5678 5678 5677 5676 5675 5675 5674 5673 5673 5673 5672 5671 5670 5670 5669 5668 5668 5667 5666 5666 5665 5664 5663 5663
5687 5687 5687 5687 5687 5687 5687 5687 5687 5687 5687 5687 5687 5687 5687 5687 5687 5687 5686 5686 5686 5686 5686 5685 5685 5685 5684 5684 5684 5683 5683 5683 5682 5682 5681 5681 5681 5680 5680 5679 5678 5678 5677 5676 5676 5675 5675 5674 5674 5673 5672 5672 5671 5670 5670 5670 5669 5668 5667 5667 5666 5665 5664 5664 5663 5663 5662 5661 5661
5684 5684 5684 5684 5684 5684 5684 5684 5684 5684 5684 5684 5684 5684 5684 5684 5684 5684 5684 5683 5683 5683 5683 5683 5682 5682 5682 5681 5681 5680 5680 5679 5679 5678 5678 5678 5678 5677 5677 5676 5676 5675 5674 5673 5673 5672 5672 5671 5671 5670 5670 5669 5668 5668 5668 5667 5667 5666 5665 5664 5663 5663 5662 5661 5661 5660 5659 5659 5658
5682 5682 5682 5682 5682 5682 5682 5682 5682 5682 5682 5682 5682 5681 5681 5681 5681 5681 5681 5681 5680 5680 5680 5680 5679 5679 5679 5678 5678 5678 5677 5677 5676 5676 5675 5675 5674 5674 5674 5673 5673 5672 5672 5671 5670 5670 5669 5668 5668 5668 5667 5666 5666 5665 5665 5665 5664 5664 5663 5662 5661 5660 5660 5659 5658 5658 5657 5656 5656
5680 5680 5680 5680 5680 5680 5679 5679 5679 5679 5679 5679 5679 5678 5678 5678 5678 5678 5678 5678 5678 5677 5677 5677 5677 5676 5676 5676 5675 5675 5674 5674 5673 5673 5673 5672 5671 5671 5671 5670 5670 5669 5669 5668 5668 5667 5667 5666 5666 5665 5664 5664 5663 5663 5663 5662 5662 5661 5660 5660 5659 5658 5657 5657 5656 5655 5654 5654 5653
5678 5678 5678 5678 5678 5677 5677 5677 5677 5677 5677 5676 5676 5676 5676 5676 5675 5675 5675 5675 5675 5674 5674 5674 5674 5673 5673 5673 5673 5672 5672 5672 5671 5671 5670 5669 5669 5668 5668 5668 5667 5666 5666 5665 5665 5664 5664 5663 5663 5662 5662 5661 5661 5660 5660 5659 5659 5658 5657 5657 5656 5655 5655 5654 5653 5653 5652 5652 5651